TimeCST,TemperatureF,Dew PointF,Humidity,Sea Level PressureIn,VisibilityMPH,Wind Direction,Wind SpeedMPH,Gust SpeedMPH,PrecipitationIn,Events,Conditions,WindDirDegrees,DateUTC
12:11 AM,12.2,8.6,85,30.33,10.0,Calm,Calm,-,N/A,,Overcast,0,2012-11-24 06:11:00
12:53 AM,12.9,9.0,84,30.40,10.0,Calm,Calm,-,N/A,,Overcast,0,2012-11-24 06:53:00
1:53 AM,12.9,9.0,84,30.37,10.0,East,3.5,-,N/A,,Overcast,100,2012-11-24 07:53:00
2:53 AM,10.9,9.0,92,30.38,10.0,ESE,3.5,-,N/A,,Overcast,110,2012-11-24 08:53:00
3:53 AM,10.0,8.1,92,30.35,10.0,ESE,3.5,-,N/A,,Overcast,120,2012-11-24 09:53:00
4:53 AM,10.0,7.0,87,30.33,10.0,SSE,4.6,-,N/A,,Overcast,160,2012-11-24 10:53:00
5:53 AM,9.0,6.1,88,30.31,10.0,SSE,5.8,-,N/A,,Scattered Clouds,150,2012-11-24 11:53:00
6:07 AM,8.6,6.8,92,30.21,10.0,South,5.8,-,N/A,,Mostly Cloudy,170,2012-11-24 12:07:00
6:51 AM,10.4,6.8,85,30.18,10.0,SE,9.2,-,N/A,,Overcast,140,2012-11-24 12:51:00
6:53 AM,10.9,7.0,84,30.28,10.0,SE,9.2,-,N/A,,Overcast,140,2012-11-24 12:53:00
7:53 AM,10.9,7.0,84,30.25,10.0,SSE,10.4,-,N/A,,Overcast,160,2012-11-24 13:53:00
8:53 AM,12.9,9.0,84,30.24,10.0,South,11.5,-,N/A,,Overcast,170,2012-11-24 14:53:00
9:01 AM,12.2,8.6,85,30.15,10.0,South,9.2,-,N/A,,Overcast,180,2012-11-24 15:01:00
9:22 AM,14.0,8.6,79,30.14,10.0,SSE,11.5,-,N/A,,Overcast,160,2012-11-24 15:22:00
9:48 AM,15.8,10.4,79,30.10,10.0,SSE,13.8,-,N/A,,Overcast,150,2012-11-24 15:48:00
9:53 AM,15.1,10.9,84,30.19,10.0,SSE,15.0,-,N/A,,Overcast,150,2012-11-24 15:53:00
10:53 AM,17.1,12.0,81,30.14,10.0,SSE,18.4,-,N/A,,Overcast,160,2012-11-24 16:53:00
11:53 AM,18.0,12.0,78,30.08,10.0,SSE,16.1,-,N/A,,Overcast,150,2012-11-24 17:53:00
12:53 PM,19.9,12.9,74,30.02,10.0,SSE,12.7,-,N/A,,Overcast,150,2012-11-24 18:53:00
1:53 PM,21.9,14.0,72,29.96,10.0,SE,15.0,-,N/A,,Overcast,130,2012-11-24 19:53:00
2:53 PM,23.0,15.1,72,29.96,10.0,SSE,10.4,-,N/A,,Overcast,160,2012-11-24 20:53:00
3:53 PM,23.0,15.1,72,29.93,10.0,SE,12.7,-,N/A,,Overcast,140,2012-11-24 21:53:00
4:53 PM,23.0,16.0,74,29.89,10.0,SE,10.4,-,N/A,,Overcast,140,2012-11-24 22:53:00
5:53 PM,24.1,16.0,71,29.89,10.0,SSE,9.2,-,N/A,,Overcast,160,2012-11-24 23:53:00
6:53 PM,25.0,17.1,72,29.90,10.0,SSE,3.5,-,N/A,,Overcast,150,2012-11-25 00:53:00
7:53 PM,25.0,17.1,72,29.85,10.0,SSE,11.5,-,N/A,,Overcast,160,2012-11-25 01:53:00
8:27 PM,26.6,17.6,69,29.79,10.0,SW,3.5,-,N/A,,Overcast,230,2012-11-25 02:27:00
8:53 PM,26.1,18.0,71,29.86,10.0,SSW,4.6,-,N/A,,Overcast,210,2012-11-25 02:53:00
9:53 PM,27.0,19.0,72,29.85,10.0,West,4.6,-,N/A,,Overcast,260,2012-11-25 03:53:00
10:34 PM,26.6,17.6,69,29.78,10.0,WNW,9.2,-,N/A,,Scattered Clouds,300,2012-11-25 04:34:00
10:53 PM,27.0,19.0,72,29.86,10.0,WNW,9.2,-,N/A,,Partly Cloudy,300,2012-11-25 04:53:00
11:17 PM,28.4,19.4,69,29.79,10.0,WNW,9.2,-,N/A,,Mostly Cloudy,300,2012-11-25 05:17:00
11:53 PM,28.9,21.9,75,29.88,10.0,NW,12.7,-,N/A,,Overcast,310,2012-11-25 05:53:00